Terminal Aerodrome Forecast
Issued by NWS St Louis, MO

Home | Current Version | Previous Version | Text Only | Print | Product List | Glossary On
Versions: 1 2 3 4 5 6 7 8 9 10 11 12 13 14 15 16 17 18 19 20 21 22
000
FTUS43 KLSX 271900 AAB
TAFCOU
TAF AMD
KCOU 271906Z 2719/2818 30010KT P6SM -SN OVC015
      TEMPO 2719/2720 5SM -SN BR BKN008
     FM272200 30010KT P6SM SCT025 BKN120
     FM280300 30005KT P6SM SCT250=

USA.gov is the U.S. government's official web portal to all federal, state and local government web resources and services.